World > North America > United States > New York > Newfield

Hourly Newfield, NY Regional Weather

Feedback E-mail the Weather

Quick WX

Newfield, NY Weather Maps

°F °C°F °C
Newfield Weather Map
UTC Time: 8/17/2022, 19:42
Your Time:

Newfield, NY Regional Weather

Expires:202208172000;;210730
ASUS41 KBGM 171910
RWRBGM

REGIONAL WEATHER ROUNDUP
NATIONAL WEATHER SERVICE BINGHAMTON NY
300 PM EDT WED AUG 17 2022

Note: "fair" indicates few or no clouds below 12,000 feet with no
significant weather and/or obstructions to visibility.

* = Station(s) that does not report precipitation, such as rain, 
snow, etc, also no thunder or fog.


NYZ009-015>018-022>025-036-037-044>046-055>057-062-172000
...Central New York...
  
CITY           SKY/WX    TMP DP  RH WIND       PRES   REMARKS
Binghamton     CLOUDY    73  54  51 CALM      30.04F                  
Cortland       HVY RAIN  64  57  77 W6        30.05R                  
Dansville      CLOUDY    74  57  55 NW14      30.04R                  
Elmira         MOSUNNY   78  55  44 NW12      30.00F THUNDER          
Endicott       CLOUDY    73  55  53 E7        30.02F                  
Ithaca         PTSUNNY   78  60  53 W10G16    30.03F                  
Hamilton       MOSUNNY   72  55  56 N6        30.04S                  
Hornell        CLOUDY    64  63  94 CALM      30.10R                  
Monticello     PTSUNNY   72  58  61 W7        30.03F                  
Norwich        CLOUDY    77  54  44 N7        30.04F                  
Oneonta        LGT RAIN  66  59  77 W3        30.05F                  
Penn Yan       PTSUNNY   69  60  73 SW10      30.04F                  
Rome           LGT RAIN  66  60  81 N5        30.02F                  
Seneca Falls   PTCLDY    79  61  53 N3        30.01F                  
Sidney         MOSUNNY   79  57  47 E3        30.01F                  
Skaneateles    FAIR      77  61  57 VRB5      30.02F                  
Syracuse       PTSUNNY   80  59  48 NE6       30.00F                  
$$
 

SKY/WX - Weather  TMP - Temperature  DP - Dew Point  RH - Humidity
WIND - Wind Direction/Speed PRES - Barometric Pressure VSB - Visibility
WCI - Wind Chill Index E13G22 Wind - East Wind 13 mph/Gusts of 22 mph

Trending Headlines

Newfield Radar Loop



Newfield Quick Facts


National Two Day Weather Forecast


E-mail the Newfield Weather Forecast

Voice your opinion or tell us about page issues...